Date String (YYYY-MM-DD hh:mm:ss) UTC,Instrument flags,Ambient pressure (hPa),Sample flow (lpm),Bypass flow (lpm),Sample temperature (°C),Ambient temperature (°C),ASC tube jacket temperature (°C),LED temperature (°C),Box temperature (°C),Sample RH (%),Span deviation,Mass concentration (μg/m³),Mass concentration (μg/m³),Mass concentration (μg/m³)
DateTimeUTC,F1_M11,P_M11,Q1_M11,Q2_M11,T1_M11,T2_M11,T3_M11,T4_M11,T5_M11,U1_M11,ZSPAN_M11,X2_M11,X0_M11,X1_M11
2022-03-19 09:00:00,,0826.1,5.00,0.00,22.7,21.8,00.0,31.8,24.5,08.2,0000.0,0003.38,0006.74,0002.43
2022-03-19 09:01:00,,0826.1,5.00,0.00,22.7,21.8,00.0,31.8,24.5,08.2,0000.0,0003.41,0006.46,0002.43
2022-03-19 09:02:00,,0826.1,5.00,0.00,22.7,21.8,00.0,31.7,24.5,08.1,0000.0,0003.41,0006.48,0002.43
2022-03-19 09:03:00,,0826.1,4.99,0.00,22.7,21.8,00.0,31.7,24.5,08.2,0000.0,0003.35,0006.55,0002.40
2022-03-19 09:04:00,,0826.1,5.00,0.00,22.7,21.8,00.0,31.7,24.5,08.1,0000.0,0003.32,0006.40,0002.36
2022-03-19 09:05:00,,0826.1,5.01,0.00,22.7,21.8,00.0,31.7,24.5,08.1,0000.0,0003.37,0006.72,0002.38
2022-03-19 09:06:00,,0826.1,5.00,0.00,22.8,21.8,00.0,31.7,24.5,08.1,0000.0,0003.41,0006.90,0002.41
2022-03-19 09:07:00,,0826.1,5.00,0.00,22.8,21.8,00.0,31.7,24.5,08.1,0000.0,0003.43,0007.10,0002.42
2022-03-19 09:08:00,,0826.1,4.99,0.00,22.8,21.8,00.0,31.7,24.5,08.0,0000.0,0003.45,0007.38,0002.42
2022-03-19 09:09:00,,0826.1,5.00,0.00,22.8,21.8,00.0,31.7,24.5,08.1,0000.0,0003.46,0007.43,0002.42
2022-03-19 09:10:00,,0826.1,5.00,0.00,22.7,21.8,00.0,31.7,24.5,08.1,0000.0,0003.47,0007.35,0002.39
2022-03-19 09:11:00,,0826.2,5.02,0.00,22.7,21.7,00.0,31.7,24.5,08.1,0000.0,0003.43,0007.07,0002.38
2022-03-19 09:12:00,,0826.1,4.99,0.00,22.7,21.7,00.0,31.7,24.5,08.1,0000.0,0003.39,0006.90,0002.36
2022-03-19 09:13:00,,0826.1,5.00,0.00,22.7,21.7,00.0,31.7,24.5,08.3,0000.0,0003.42,0006.98,0002.37
2022-03-19 09:14:00,,0826.1,5.00,0.00,22.7,21.8,00.0,31.7,24.5,08.5,0000.0,0003.47,0006.96,0002.39
2022-03-19 09:15:00,,0826.1,5.00,0.00,22.7,21.8,00.0,31.7,24.5,08.6,0000.0,0003.48,0007.06,0002.40
2022-03-19 09:16:00,,0826.1,5.00,0.00,22.8,21.8,00.0,31.7,24.5,08.5,0000.0,0003.48,0007.07,0002.39
2022-03-19 09:17:00,,0826.1,5.01,0.00,22.8,21.8,00.0,31.7,24.5,08.3,0000.0,0003.47,0006.98,0002.39
2022-03-19 09:18:00,,0826.1,5.01,0.00,22.8,21.8,00.0,31.7,24.5,08.4,0000.0,0003.47,0006.91,0002.39
2022-03-19 09:19:00,,0826.1,5.00,0.00,22.7,21.8,00.0,31.7,24.5,08.5,0000.0,0003.48,0007.63,0002.40
2022-03-19 09:20:00,,0826.2,4.99,0.00,22.8,21.8,00.0,31.7,24.6,08.6,0000.0,0003.42,0007.66,0002.39
2022-03-19 09:21:00,,0826.1,5.00,0.00,22.8,21.8,00.0,31.7,24.5,08.6,0000.0,0003.40,0007.85,0002.38
2022-03-19 09:22:00,,0826.1,5.01,0.00,22.8,21.8,00.0,31.7,24.5,08.7,0000.0,0003.41,0007.98,0002.37
2022-03-19 09:23:00,,0826.1,4.99,0.00,22.7,21.8,00.0,31.7,24.5,08.8,0000.0,0003.44,0008.05,0002.38
2022-03-19 09:24:00,,0826.2,5.00,0.00,22.7,21.8,00.0,31.7,24.5,08.8,0000.0,0003.41,0007.95,0002.39
2022-03-19 09:25:00,,0826.2,5.02,0.00,22.7,21.8,00.0,31.7,24.5,08.8,0000.0,0003.35,0007.79,0002.39
2022-03-19 09:26:00,,0826.2,5.00,0.00,22.7,21.8,00.0,31.7,24.4,08.8,0000.0,0003.34,0007.70,0002.40
2022-03-19 09:27:00,,0826.1,4.99,0.00,22.7,21.8,00.0,31.7,24.5,08.8,0000.0,0003.29,0007.53,0002.40
2022-03-19 09:28:00,,0826.1,4.99,0.00,22.7,21.8,00.0,31.7,24.4,08.7,0000.0,0003.30,0007.55,0002.42
2022-03-19 09:29:00,,0826.0,5.00,0.00,22.7,21.7,00.0,31.7,24.4,08.7,0000.0,0003.30,0007.53,0002.42
2022-03-19 09:30:00,,0826.0,5.01,0.00,22.7,21.7,00.0,31.7,24.4,08.6,0000.0,0003.31,0007.67,0002.42
2022-03-19 09:31:00,,0826.1,5.01,0.00,22.6,21.7,00.0,31.7,24.3,08.7,0000.0,0003.31,0007.59,0002.42
2022-03-19 09:32:00,,0826.0,5.01,0.00,22.6,21.7,00.0,31.7,24.3,08.6,0000.0,0003.29,0007.30,0002.41
2022-03-19 09:33:00,,0826.0,5.00,0.00,22.6,21.7,00.0,31.7,24.3,08.7,0000.0,0003.28,0007.00,0002.42
2022-03-19 09:34:00,,0826.1,5.00,0.00,22.6,21.7,00.0,31.7,24.3,08.9,0000.0,0003.28,0007.06,0002.41
2022-03-19 09:35:00,,0826.0,5.00,0.00,22.6,21.7,00.0,31.7,24.3,08.7,0000.0,0003.24,0007.01,0002.37
2022-03-19 09:36:00,,0826.0,4.99,0.00,22.6,21.6,00.0,31.7,24.3,08.6,0000.0,0003.19,0006.81,0002.34
2022-03-19 09:37:00,,0826.0,5.00,0.00,22.6,21.6,00.0,31.6,24.3,08.5,0000.0,0003.24,0007.41,0002.32
2022-03-19 09:38:00,,0826.0,5.00,0.00,22.6,21.6,00.0,31.6,24.3,08.4,0000.0,0003.27,0007.52,0002.31
2022-03-19 09:39:00,,0825.9,5.00,0.00,22.6,21.6,00.0,31.6,24.3,08.5,0000.0,0003.25,0007.48,0002.30
2022-03-19 09:40:00,,0826.0,5.00,0.00,22.6,21.6,00.0,31.6,24.3,08.5,0000.0,0003.24,0007.45,0002.28
2022-03-19 09:41:00,,0826.0,5.00,0.00,22.6,21.6,00.0,31.6,24.3,08.5,0000.0,0003.19,0006.36,0002.26
2022-03-19 09:42:00,,0825.9,4.99,0.00,22.6,21.6,00.0,31.6,24.3,08.6,0000.0,0003.21,0005.85,0002.25
2022-03-19 09:43:00,,0825.9,5.00,0.00,22.6,21.6,00.0,31.6,24.3,08.6,0000.0,0003.27,0006.16,0002.26
2022-03-19 09:44:00,,0826.0,5.02,0.00,22.6,21.6,00.0,31.6,24.2,08.5,0000.0,0003.28,0006.23,0002.26
2022-03-19 09:45:00,,0826.0,4.99,0.00,22.6,21.6,00.0,31.6,24.2,08.5,0000.0,0003.27,0006.25,0002.25
2022-03-19 09:46:00,,0826.0,4.99,0.00,22.5,21.6,00.0,31.6,24.2,08.4,0000.0,0003.31,0007.09,0002.25
2022-03-19 09:47:00,,0826.0,5.00,0.00,22.5,21.6,00.0,31.6,24.2,08.3,0000.0,0003.36,0007.33,0002.26
2022-03-19 09:48:00,,0826.0,5.00,0.00,22.5,21.6,00.0,31.6,24.2,08.2,0000.0,0003.34,0006.90,0002.24
2022-03-19 09:49:00,,0826.0,5.00,0.00,22.5,21.6,00.0,31.6,24.2,08.2,0000.0,0003.32,0006.82,0002.22
2022-03-19 09:50:00,,0826.0,5.00,0.00,22.5,21.6,00.0,31.6,24.3,08.3,0000.0,0003.34,0007.00,0002.21
2022-03-19 09:51:00,,0826.0,5.01,0.00,22.5,21.6,00.0,31.5,24.3,08.1,0000.0,0003.33,0006.97,0002.17
2022-03-19 09:52:00,,0825.9,5.00,0.00,22.5,21.6,00.0,31.5,24.3,08.2,0000.0,0003.31,0006.93,0002.16
2022-03-19 09:53:00,,0825.9,5.01,0.00,22.5,21.5,00.0,31.5,24.3,08.1,0000.0,0003.27,0006.80,0002.15
2022-03-19 09:54:00,,0825.9,5.00,0.00,22.5,21.5,00.0,31.5,24.3,08.0,0000.0,0003.23,0006.64,0002.13
2022-03-19 09:55:00,,0826.0,5.00,0.00,22.5,21.6,00.0,31.5,24.3,08.0,0000.0,0003.22,0006.66,0002.12
2022-03-19 09:56:00,,0826.0,5.00,0.00,22.5,21.6,00.0,31.5,24.3,08.1,0000.0,0003.20,0006.47,0002.10
2022-03-19 09:57:00,,0826.0,5.00,0.00,22.5,21.6,00.0,31.5,24.3,08.1,0000.0,0003.16,0005.53,0002.08
2022-03-19 09:58:00,,0826.0,5.00,0.00,22.5,21.6,00.0,31.5,24.3,08.5,0000.0,0003.12,0005.35,0002.06
2022-03-19 09:59:00,,0826.0,5.00,0.00,22.5,21.6,00.0,31.5,24.2,08.6,0000.0,0003.12,0005.42,0002.06
